Date,TemperatureHighF,TemperatureAvgF,TemperatureLowF,DewpointHighF,DewpointAvgF,DewpointLowF,HumidityHigh,HumidityAvg,HumidityLow,PressureMaxIn,PressureMinIn,WindSpeedMaxMPH,WindSpeedAvgMPH,GustSpeedMaxMPH,PrecipitationSumIn
2013-1-1,17.9,0.8,-15.7,17.0,-1.9,-19.0,94,88,83,30.37,30.07,0,0,0,0.00
2013-1-2,20.9,19.5,17.3,20.0,18.0,16.0,95,93,91,30.16,29.98,5,1,7,0.00
2013-1-3,17.0,12.3,6.7,15.0,9.6,4.0,93,89,79,30.28,29.98,4,1,8,0.00
2013-1-4,28.7,15.0,3.8,24.0,12.3,2.0,95,89,80,30.20,30.00,3,0,7,0.09
2013-1-5,25.1,14.8,4.9,22.0,12.5,3.0,95,90,85,30.19,29.98,2,0,6,0.01
2013-1-6,16.5,12.4,8.9,12.0,9.1,7.0,93,86,78,30.28,29.99,6,1,14,0.00
2013-1-7,36.1,23.3,12.6,29.0,19.5,10.0,93,85,72,29.98,29.80,6,1,13,0.11
2013-1-8,29.3,20.8,7.5,27.0,18.7,5.0,95,91,84,30.00,29.75,6,1,9,0.00
2013-1-9,29.7,24.9,18.4,27.0,21.1,15.0,94,85,79,30.35,29.79,8,2,17,0.00
2013-1-10,41.5,32.4,22.0,31.0,24.4,18.0,96,74,51,30.28,29.75,12,4,16,0.30
2013-1-11,34.0,32.7,31.9,34.0,32.3,31.0,99,98,96,29.73,29.36,5,1,10,0.72
2013-1-12,32.4,13.4,2.7,32.0,10.7,-1.0,99,89,79,30.17,29.34,4,1,11,0.02
2013-1-13,8.5,2.8,-1.4,4.0,-0.6,-4.0,88,85,79,30.29,30.14,2,0,4,0.00
2013-1-14,10.0,4.5,0.2,5.0,0.5,-4.0,91,83,75,30.46,30.30,3,1,7,0.00
2013-1-15,21.1,13.8,5.7,16.0,8.7,3.0,89,80,69,30.33,29.69,6,2,12,0.00
2013-1-16,25.1,13.6,-1.9,24.0,8.0,-9.0,96,79,59,30.35,29.61,4,1,10,0.00
2013-1-17,7.9,-0.2,-6.0,0.0,-5.8,-10.0,88,77,67,30.49,30.35,2,0,5,0.00
2013-1-18,17.2,11.7,1.2,16.0,8.9,-3.0,94,88,79,30.39,29.85,4,1,8,0.00
2013-1-19,25.9,12.8,-4.2,24.0,9.7,-8.0,97,87,77,30.31,29.70,6,2,18,0.00
2013-1-20,-0.3,-8.1,-17.1,-7.0,-12.8,-21.0,85,80,71,30.47,30.31,8,1,11,0.00
2013-1-21,-8.7,-15.1,-21.2,-17.0,-20.8,-26.0,81,75,64,30.45,30.38,4,1,11,0.00
2013-1-22,-0.9,-13.1,-27.4,-10.0,-22.8,-99.9,83,73,65,30.52,30.36,3,-46,6,0.00
2013-1-23,0.3,-7.4,-21.7,-3.0,-12.8,-26.0,88,77,61,30.82,30.26,4,1,12,0.00
2013-1-24,3.6,-9.8,-22.7,-3.0,-16.8,-99.9,82,74,63,30.83,30.28,7,-9,11,0.00
2013-1-25,12.0,4.5,-11.0,8.0,0.5,-15.0,89,83,75,30.44,30.01,8,1,12,0.00
2013-1-26,12.4,0.4,-15.2,4.0,-5.1,-19.0,89,78,67,30.46,30.26,6,2,9,0.00
2013-1-27,30.6,19.9,6.3,24.0,14.0,3.0,89,78,66,30.27,29.93,6,1,9,0.00
2013-1-28,31.1,28.8,25.9,30.0,27.2,23.0,98,93,86,29.93,29.76,5,1,9,0.00
2013-1-29,29.7,25.8,18.3,29.0,24.3,16.0,98,94,88,29.88,29.62,4,0,6,0.00
2013-1-30,17.8,9.2,2.4,15.0,5.9,-1.0,90,86,80,29.88,29.79,5,1,7,0.00
2013-1-31,2.1,-3.9,-18.2,-1.0,-8.5,-23.0,88,81,74,30.35,29.85,7,1,11,0.00
2013-2-1,-3.9,-13.5,-30.0,-8.0,-23.2,-99.9,82,72,66,30.40,30.27,3,-43,4,0.00
2013-2-2,6.2,-4.1,-21.4,2.0,-9.0,-26.0,88,80,65,30.34,30.11,2,0,5,0.00
2013-2-3,7.1,0.4,-13.3,1.0,-5.3,-17.0,86,78,62,30.19,30.11,3,0,6,0.00
2013-2-4,8.8,-6.0,-24.5,6.0,-11.1,-29.0,89,79,69,30.22,29.80,7,1,11,0.00
2013-2-5,16.2,10.7,6.7,10.0,7.1,3.0,92,85,73,30.16,29.75,5,1,8,0.00
2013-2-6,18.5,13.0,4.1,17.0,10.3,1.0,93,88,83,30.22,30.10,3,1,6,0.00
2013-2-7,23.6,15.4,-0.9,17.0,11.9,-4.0,94,86,71,30.42,30.23,5,1,8,0.00
2013-2-8,23.8,13.5,-1.9,17.0,9.3,-5.0,94,83,72,30.48,30.28,8,2,12,0.00
2013-2-9,26.0,22.6,16.5,25.0,20.7,12.0,96,92,82,30.28,30.02,7,3,12,0.00
2013-2-10,26.1,25.6,24.5,25.0,24.5,23.0,97,95,93,30.02,29.53,9,2,14,0.00
2013-2-11,24.3,19.9,5.3,23.0,17.9,3.0,95,92,87,30.04,29.54,5,1,11,0.00
2013-2-12,28.7,17.7,0.4,25.0,15.5,-2.0,95,91,83,30.03,29.81,4,1,5,0.03
2013-2-13,31.9,22.1,9.3,28.0,19.9,7.0,96,91,81,29.81,29.69,3,0,5,0.11
2013-2-14,21.8,16.0,5.5,21.0,10.5,2.0,97,80,55,30.26,29.77,6,1,12,0.00
2013-2-15,14.4,4.3,-11.5,6.0,-0.7,-15.0,89,80,66,30.41,30.26,4,0,12,0.00
2013-2-16,17.4,7.4,-0.9,5.0,2.0,-4.0,89,79,57,30.33,30.18,2,0,4,0.00
2013-2-17,26.9,16.8,-0.2,20.0,11.7,-3.0,89,80,71,30.18,29.70,9,4,17,0.00
2013-2-18,25.4,17.9,1.7,24.0,14.5,-3.0,93,86,80,29.97,29.58,5,2,12,0.00
2013-2-19,6.4,-0.9,-6.0,-3.0,-7.3,-11.0,84,75,62,30.56,29.98,10,2,13,0.00
2013-2-20,15.4,1.6,-11.5,-7.0,-11.0,-16.0,83,59,29,30.66,30.56,4,1,7,0.00
2013-2-21,23.9,8.5,-11.0,12.0,0.3,-16.0,89,70,49,30.65,30.34,4,1,7,0.00
2013-2-22,26.8,20.8,13.9,24.0,19.1,12.0,95,93,89,30.34,29.95,6,1,7,0.00
2013-2-23,31.1,21.4,14.3,25.0,18.7,12.0,96,89,76,30.02,29.91,3,0,6,0.10
2013-2-24,32.1,17.2,0.6,24.0,13.4,-2.0,93,85,71,30.16,30.02,3,0,4,0.09
2013-2-25,30.6,18.3,5.4,25.0,15.6,3.0,95,89,77,30.17,30.12,4,0,6,0.01
2013-2-26,40.7,21.5,3.5,26.0,15.0,1.0,95,78,47,30.18,30.10,3,0,6,0.22
2013-2-27,42.0,29.4,17.3,24.0,19.9,14.0,87,69,43,30.19,30.02,8,2,16,0.12
2013-2-28,29.9,24.7,19.9,21.0,15.8,9.0,82,70,55,30.39,30.19,7,2,11,0.00
2013-3-1,26.7,17.3,4.2,9.0,3.7,-4.0,72,57,33,30.52,30.39,4,1,8,0.00
2013-3-2,29.2,13.4,-7.5,13.0,2.2,-11.0,84,63,39,30.48,30.26,4,1,4,0.00
2013-3-3,31.1,23.6,14.7,12.0,8.3,4.0,73,54,33,30.26,30.09,7,2,14,0.00
2013-3-4,29.7,23.7,20.4,21.0,15.7,10.0,93,73,45,30.17,30.06,8,2,13,0.00
2013-3-5,25.5,21.2,12.3,23.0,19.0,10.0,94,91,86,30.42,30.14,5,1,11,0.01
2013-3-6,25.2,12.4,-1.0,17.0,8.3,-4.0,93,84,70,30.52,30.43,3,0,9,0.13
2013-3-7,30.0,15.4,-6.0,20.0,9.2,-9.0,92,77,63,30.52,30.39,6,2,9,0.02
2013-3-8,32.3,25.0,17.5,26.0,20.8,14.0,91,84,74,30.41,30.18,4,1,8,0.02
2013-3-9,33.2,30.6,27.3,33.0,29.2,25.0,98,95,88,30.18,29.81,4,1,7,0.08
2013-3-10,30.3,24.9,16.1,30.0,22.8,14.0,97,92,84,30.16,29.90,3,0,7,0.01
2013-3-11,27.8,21.6,16.2,22.0,18.0,14.0,92,86,76,30.09,29.84,4,0,7,0.00
2013-3-12,25.0,17.3,4.4,15.0,10.9,1.0,94,77,53,30.30,29.89,6,1,17,0.00
2013-3-13,30.6,13.4,-3.9,19.0,7.8,-7.0,91,79,54,30.46,30.30,4,1,6,0.00
2013-3-14,40.4,27.5,17.9,31.0,23.0,14.0,91,83,67,30.30,30.07,5,1,7,0.03
2013-3-15,30.2,21.6,10.4,27.0,14.8,7.0,89,76,51,30.13,30.02,7,2,12,0.00
2013-3-16,17.2,7.5,-9.8,8.0,1.1,-14.0,88,76,57,30.41,30.14,5,1,10,0.00
2013-3-17,22.0,5.8,-19.6,14.0,-4.0,-24.0,90,66,45,30.42,29.92,9,3,15,0.00
2013-3-18,25.1,19.0,10.3,24.0,17.0,8.0,94,91,83,29.91,29.55,9,3,15,0.00
2013-3-19,19.5,9.8,1.3,9.0,3.1,-4.0,88,75,59,30.24,29.83,5,2,13,0.00
2013-3-20,22.6,9.5,0.6,8.0,0.7,-5.0,83,69,52,30.28,30.20,5,1,11,0.00
2013-3-21,29.3,11.7,-9.5,12.0,2.9,-13.0,86,70,47,30.25,30.16,4,1,8,0.00
2013-3-22,35.8,18.4,-3.4,22.0,10.4,-7.0,88,73,55,30.22,30.14,4,1,8,0.04
2013-3-23,36.8,24.2,7.4,26.0,16.0,5.0,92,73,50,30.25,30.18,4,1,8,0.00
2013-3-24,32.9,28.1,23.1,24.0,19.3,16.0,78,70,60,30.22,30.13,4,1,11,0.00
2013-3-25,37.3,27.6,14.5,19.0,16.1,11.0,86,64,43,30.32,30.19,5,1,12,0.00
2013-3-26,37.9,26.1,12.3,25.0,17.9,10.0,92,73,49,30.37,30.32,3,1,6,0.00
2013-3-27,41.3,31.0,20.1,27.0,21.0,16.0,87,69,40,30.40,30.35,4,0,8,0.00
2013-3-28,44.4,29.3,12.7,23.0,17.4,11.0,92,66,36,30.41,30.32,3,1,4,0.00
2013-3-29,49.4,36.9,22.2,33.0,27.8,19.0,90,71,48,30.35,30.05,6,1,10,0.00
2013-3-30,52.8,40.5,31.6,39.0,32.2,25.0,98,75,43,30.05,29.84,8,1,11,0.23
2013-3-31,32.7,27.4,17.1,28.0,17.5,9.0,93,67,49,30.18,29.78,7,2,13,0.02
2013-4-1,31.0,20.9,9.2,12.0,9.2,5.0,84,63,42,30.31,30.18,5,1,11,0.00
2013-4-2,35.7,22.8,7.7,13.0,7.5,3.0,93,57,26,30.45,30.31,4,1,8,0.00
2013-4-3,38.4,27.0,9.3,32.0,17.3,5.0,87,69,47,30.45,30.02,16,3,20,0.00
2013-4-4,40.4,33.0,23.3,32.0,22.5,12.0,94,68,36,30.28,30.01,5,1,9,0.00
2013-4-5,36.5,27.2,14.7,27.0,17.5,12.0,92,69,44,30.34,30.01,9,2,14,0.00
2013-4-6,35.2,32.1,29.2,33.0,30.5,26.0,97,93,89,30.00,29.70,6,1,11,0.22
2013-4-7,36.4,33.5,30.6,32.0,30.7,29.0,97,89,78,29.95,29.85,6,1,8,0.32
2013-4-8,38.7,34.3,31.1,36.0,32.3,24.0,98,92,74,30.19,29.87,5,1,7,0.22
2013-4-9,37.1,28.2,17.1,23.0,17.9,12.0,80,66,50,30.33,30.18,8,2,14,0.00
2013-4-10,42.7,34.5,24.3,19.0,14.6,11.0,64,46,28,30.36,30.13,11,2,13,0.00
2013-4-11,32.6,28.9,26.2,25.0,19.6,14.0,92,69,50,30.16,29.94,10,3,17,0.01
2013-4-12,32.4,27.1,23.3,25.0,23.6,21.0,93,87,72,29.94,29.88,9,2,12,0.19
2013-4-13,34.7,27.4,21.1,23.0,20.8,18.0,93,77,52,30.05,29.91,6,1,7,0.06
2013-4-14,41.9,28.2,15.2,29.0,21.7,14.0,96,79,45,30.06,29.65,10,2,19,0.00
2013-4-15,38.2,32.8,29.5,36.0,31.5,29.0,98,95,86,29.91,29.51,7,2,18,0.41
2013-4-16,40.0,34.3,29.8,32.0,27.3,24.0,97,77,55,30.42,29.92,4,1,9,0.04
2013-4-17,36.7,33.2,29.7,31.0,29.2,27.0,95,85,75,30.45,30.16,4,1,9,0.03
2013-4-18,33.0,30.0,28.7,30.0,28.6,27.0,97,94,87,30.16,29.70,8,1,14,0.19
2013-4-19,35.5,28.3,19.4,28.0,20.1,8.0,97,74,36,30.05,29.68,10,2,15,0.42
2013-4-20,38.8,24.0,4.5,18.0,10.5,2.0,90,60,30,30.36,30.06,6,1,9,0.10
2013-4-21,35.7,30.9,23.7,33.0,25.1,12.0,98,80,55,30.37,30.06,11,4,18,0.19
2013-4-22,37.4,32.4,24.6,32.0,25.6,21.0,97,78,54,30.34,30.17,5,1,8,0.01
2013-4-23,41.1,33.2,24.4,23.0,18.5,13.0,80,57,33,30.29,30.08,6,1,9,0.00
2013-4-24,40.1,30.2,20.6,32.0,24.1,18.0,92,79,44,30.08,29.92,3,1,5,0.01
2013-4-25,40.6,33.4,24.5,29.0,26.9,23.0,97,78,57,30.20,30.02,5,1,8,0.00
2013-4-26,56.5,43.6,31.1,36.0,31.5,25.0,86,64,42,30.16,30.01,5,2,8,0.00
2013-4-27,58.9,46.6,31.4,36.0,33.0,29.0,91,63,40,30.16,29.85,7,1,11,0.00
2013-4-28,61.1,49.3,39.6,46.0,40.4,34.0,96,73,54,29.85,29.66,7,1,11,0.00
2013-4-29,64.1,45.9,27.3,35.0,29.5,25.0,95,59,24,29.89,29.62,3,1,6,0.00
2013-4-30,60.5,50.6,41.0,50.0,39.4,30.0,98,69,32,29.95,29.32,11,3,19,0.14
2013-5-1,40.4,34.7,29.6,32.0,25.2,22.0,78,69,57,30.61,29.98,6,1,11,0.00
2013-5-2,36.2,32.0,29.1,26.0,24.0,22.0,83,72,61,30.68,30.58,5,1,12,0.00
2013-5-3,44.0,35.2,25.6,31.0,23.3,20.0,85,64,43,30.58,30.32,8,2,13,0.00
2013-5-4,36.6,34.1,31.6,35.0,32.7,30.0,97,95,85,30.33,30.29,6,1,8,0.17
2013-5-5,50.6,40.8,34.3,43.0,37.9,34.0,99,90,73,30.32,30.18,3,1,7,0.00
2013-5-6,68.5,48.6,29.6,50.0,41.2,29.0,98,78,51,30.20,30.05,4,1,6,0.00
2013-5-7,70.6,53.2,36.3,51.0,42.7,36.0,98,72,42,30.09,29.96,5,1,6,0.00
2013-5-8,69.7,52.7,39.1,54.0,44.7,37.0,98,77,42,30.08,29.98,3,0,7,0.02
2013-5-9,60.1,48.2,38.8,49.0,37.0,25.0,89,69,29,30.25,30.07,11,2,13,0.00
2013-5-10,56.6,42.9,25.9,41.0,29.3,24.0,95,63,31,30.25,29.91,6,1,14,0.00
2013-5-11,43.8,37.4,31.5,31.0,26.4,21.0,89,66,47,30.24,30.05,11,2,17,0.00
2013-5-12,53.7,38.6,22.1,24.0,21.5,17.0,92,55,28,30.30,30.15,9,1,10,0.00
2013-5-13,58.1,44.2,28.1,39.0,29.9,19.0,78,58,44,30.16,29.69,14,4,22,0.01
2013-5-14,81.9,55.8,38.4,55.0,43.9,36.0,98,68,26,29.81,29.43,14,2,19,0.14
2013-5-15,77.7,58.8,38.2,46.0,40.7,35.0,96,58,23,29.86,29.70,7,1,11,0.00
2013-5-16,74.6,60.5,38.8,42.0,36.9,33.0,93,47,23,30.00,29.87,5,1,8,0.00
2013-5-17,66.6,57.9,49.5,44.0,38.7,34.0,59,49,41,30.07,29.99,9,3,12,0.00
2013-5-18,56.6,52.6,48.2,55.0,48.6,37.0,97,87,54,30.01,29.86,7,2,12,0.01
2013-5-19,65.3,58.5,53.7,61.0,56.6,53.0,99,93,83,29.87,29.68,8,2,16,0.11
2013-5-20,55.4,52.2,49.2,54.0,51.3,48.0,98,97,94,29.70,29.58,9,3,14,0.88
2013-5-21,49.1,45.7,43.5,49.0,45.2,43.0,98,98,96,29.88,29.67,8,2,15,0.31
2013-5-22,69.0,54.6,43.6,48.0,42.5,30.0,98,71,24,30.10,29.88,8,3,18,0.05
2013-5-23,63.9,52.1,38.6,40.0,31.2,25.0,83,49,24,30.36,30.12,10,2,11,0.00
2013-5-24,62.9,50.3,34.8,45.0,35.7,32.0,90,61,33,30.41,30.25,7,1,10,0.00
2013-5-25,60.2,54.4,49.3,47.0,43.4,37.0,89,67,57,30.30,30.25,9,3,19,0.00
2013-5-26,67.4,56.7,44.2,40.0,36.0,33.0,64,48,30,30.30,30.13,11,4,18,0.00
2013-5-27,62.5,55.6,46.0,48.0,41.0,31.0,69,59,43,30.12,29.88,9,2,13,0.00
2013-5-28,64.5,57.0,50.1,54.0,48.1,39.0,81,72,52,29.89,29.71,6,2,9,0.00
2013-5-29,69.9,60.5,52.7,61.0,55.8,49.0,98,85,67,29.77,29.68,8,2,12,0.42
2013-5-30,69.9,63.8,58.8,64.0,60.9,58.0,98,91,72,29.69,29.51,11,3,15,0.17
2013-5-31,67.9,62.1,56.5,61.0,56.9,52.0,99,84,58,29.56,29.46,13,3,22,0.29
2013-6-1,57.3,50.7,44.4,56.0,48.2,40.0,98,91,74,30.04,29.56,5,1,13,0.13
2013-6-2,65.0,51.2,35.2,44.0,38.5,31.0,99,66,36,30.12,30.01,3,1,7,0.00
2013-6-3,64.7,52.3,34.4,45.0,36.9,31.0,99,62,29,30.12,30.04,3,1,7,0.00
2013-6-4,63.2,54.6,47.9,50.0,41.8,33.0,87,63,50,30.14,30.09,7,2,11,0.02
2013-6-5,51.3,48.8,45.0,50.0,47.1,41.0,98,94,76,30.14,30.08,5,1,9,0.56
2013-6-6,57.1,50.7,44.4,52.0,47.3,43.0,98,88,76,30.14,30.09,5,1,8,0.00
2013-6-7,63.7,52.9,41.1,51.0,46.5,40.0,99,80,58,30.10,29.96,5,1,8,0.00
2013-6-8,68.6,57.9,42.5,51.0,47.5,42.0,99,71,49,29.98,29.92,10,2,12,0.00
2013-6-9,58.6,54.3,50.8,54.0,51.2,47.0,99,89,75,29.98,29.87,6,1,12,0.45
2013-6-10,65.5,58.5,53.7,59.0,56.0,54.0,100,91,73,29.88,29.80,6,1,10,0.00
2013-6-11,79.2,65.6,51.8,59.0,51.9,42.0,99,67,28,29.91,29.82,4,1,7,0.00
2013-6-12,77.5,63.2,48.4,55.0,50.1,48.0,99,67,40,30.01,29.87,6,1,10,0.00
2013-6-13,75.7,63.8,51.3,55.0,51.0,48.0,91,66,43,30.14,30.00,5,1,11,0.00
2013-6-14,71.1,62.1,48.9,61.0,53.3,46.0,91,74,58,30.11,29.87,9,3,13,0.06
2013-6-15,73.1,63.8,54.0,60.0,54.3,49.0,92,72,48,29.90,29.79,5,1,6,0.00
2013-6-16,81.7,63.8,50.1,64.0,54.8,49.0,97,76,37,29.87,29.77,10,1,10,0.06
2013-6-17,65.2,57.3,48.9,58.0,53.8,48.0,99,88,73,30.11,29.84,4,1,8,0.01
2013-6-18,70.0,58.6,40.9,50.0,43.2,37.0,99,62,30,30.18,30.05,7,1,9,0.00
2013-6-19,77.6,63.5,49.1,62.0,53.9,43.0,89,72,49,30.06,29.92,4,1,7,0.00
2013-6-20,66.7,62.8,58.6,64.0,60.9,57.0,97,93,84,30.02,29.90,11,1,16,0.17
2013-6-21,75.3,67.4,60.9,68.0,63.1,60.0,99,87,69,30.01,29.70,10,2,14,0.69
2013-6-22,68.0,63.1,58.4,63.0,60.5,58.0,97,91,83,30.01,29.90,8,2,12,0.11
2013-6-23,72.5,65.0,59.7,67.0,62.0,59.0,99,90,72,29.91,29.56,5,1,15,0.09
2013-6-24,77.8,68.0,55.1,66.0,60.4,54.0,98,78,53,29.86,29.78,5,1,6,0.00
2013-6-25,82.1,71.3,58.1,69.0,64.3,58.0,100,80,55,29.80,29.68,6,1,9,0.00
2013-6-26,80.5,70.7,60.6,69.0,65.0,58.0,96,83,65,29.78,29.59,3,0,8,0.03
2013-6-27,80.3,68.1,58.7,67.0,61.6,58.0,99,82,49,29.76,29.73,4,0,9,0.15
2013-6-28,72.4,64.9,60.8,65.0,61.9,60.0,98,90,74,29.84,29.72,3,1,11,0.33
2013-6-29,74.1,64.6,53.4,63.0,56.0,49.0,99,77,44,30.03,29.84,5,1,10,0.00
2013-6-30,83.3,67.1,50.7,62.0,53.4,48.0,99,68,30,30.15,30.03,5,0,8,0.00
2013-7-1,82.5,67.8,53.1,63.0,55.8,50.0,99,70,33,30.22,30.15,5,0,7,0.00
2013-7-2,82.6,66.2,49.9,61.0,52.4,46.0,90,64,35,30.19,30.05,4,0,9,0.00
2013-7-3,84.5,68.7,52.3,62.0,56.9,47.0,89,68,40,30.07,29.91,7,1,7,0.00
2013-7-4,80.5,71.2,56.5,66.0,60.4,55.0,95,71,52,29.92,29.78,9,3,13,0.00
2013-7-5,80.5,74.6,67.1,70.0,64.3,60.0,93,71,62,29.79,29.71,13,3,15,0.00
2013-7-6,72.7,68.0,62.9,70.0,66.5,62.0,99,94,85,29.85,29.76,5,1,8,0.09
2013-7-7,78.1,70.7,65.6,73.0,68.5,65.0,100,93,77,29.92,29.81,4,0,5,0.03
2013-7-8,79.8,69.4,63.4,68.0,64.8,63.0,99,86,59,29.99,29.91,3,0,4,0.00
2013-7-9,75.4,66.6,59.3,70.0,64.1,56.0,99,92,79,29.95,29.77,3,0,8,0.62
2013-7-10,75.5,63.9,54.0,60.0,56.9,53.0,99,79,55,30.05,29.93,4,0,11,0.00
2013-7-11,77.3,66.2,52.8,64.0,58.6,52.0,100,79,55,30.09,29.91,10,2,11,0.00
2013-7-12,81.3,75.1,69.0,70.0,64.9,60.0,83,71,65,29.91,29.76,17,5,20,0.01
2013-7-13,79.7,72.6,66.8,73.0,69.2,66.0,98,89,73,30.02,29.84,7,2,10,0.09
2013-7-14,70.3,67.2,65.7,68.0,65.6,63.0,99,94,86,30.20,30.01,5,2,8,0.52
2013-7-15,72.8,68.7,65.5,71.0,67.7,65.0,99,96,88,30.23,30.12,6,1,8,0.05
2013-7-16,84.8,75.5,65.2,74.0,70.0,65.0,99,84,64,30.14,30.08,4,1,6,0.00
2013-7-17,88.3,75.1,66.4,77.0,71.1,66.0,99,88,59,30.17,30.06,3,0,5,0.33
2013-7-18,86.1,77.2,68.5,76.0,72.3,68.0,100,86,67,30.05,29.60,4,1,14,0.48
2013-7-19,78.4,70.1,61.3,70.0,61.8,53.0,99,77,48,29.85,29.60,5,1,12,0.00
2013-7-20,70.9,62.4,54.3,53.0,49.4,46.0,91,64,42,30.02,29.85,5,1,7,0.00
2013-7-21,73.5,62.4,47.9,63.0,54.5,47.0,96,77,59,30.00,29.76,7,2,10,0.00
2013-7-22,73.8,65.8,55.7,68.0,59.5,53.0,98,81,66,29.86,29.61,8,2,12,0.02
2013-7-23,71.0,59.1,49.8,57.0,51.8,49.0,97,79,49,30.06,29.86,4,0,8,0.00
2013-7-24,75.1,62.4,50.9,62.0,56.1,50.0,99,82,50,30.07,29.91,4,0,7,0.09
2013-7-25,75.5,62.6,53.3,65.0,58.9,53.0,100,89,58,29.93,29.85,4,0,7,0.13
2013-7-26,57.3,54.1,49.5,56.0,51.1,46.0,99,89,76,30.16,29.86,6,1,14,0.02
2013-7-27,58.9,51.1,45.3,51.0,46.9,43.0,95,86,67,30.14,30.00,8,1,15,0.03
2013-7-28,68.9,57.1,43.7,55.0,49.7,43.0,98,78,55,30.07,30.02,6,1,10,0.00
2013-7-29,72.3,59.7,47.8,60.0,54.4,47.0,100,84,58,30.11,30.06,5,0,6,0.00
2013-7-30,73.4,63.8,54.8,65.0,60.5,54.0,98,89,69,30.08,30.00,3,0,5,0.05
2013-7-31,72.9,63.2,52.6,62.0,55.4,51.0,100,78,50,30.02,29.97,4,1,12,0.01
2013-8-1,74.3,62.1,49.8,60.0,54.5,49.0,99,79,48,29.99,29.85,3,0,7,0.01
2013-8-2,72.5,60.9,49.3,58.0,52.2,49.0,100,76,49,30.06,29.86,6,1,8,0.00
2013-8-3,70.3,58.1,45.8,56.0,50.0,45.0,99,77,50,30.25,30.07,4,0,7,0.00
2013-8-4,70.5,57.8,44.1,57.0,49.9,44.0,99,77,48,30.27,30.00,5,0,7,0.01
2013-8-5,69.9,61.4,54.8,65.0,59.1,54.0,98,92,76,30.00,29.79,5,1,6,0.42
2013-8-6,67.7,59.8,50.9,63.0,57.6,51.0,100,92,78,29.82,29.74,4,0,5,0.06
2013-8-7,70.0,59.2,47.8,55.0,52.0,48.0,99,79,51,30.02,29.83,3,0,7,0.00
2013-8-8,70.3,59.6,51.0,58.0,54.0,50.0,99,83,55,30.06,29.99,8,0,8,0.15
2013-8-9,65.2,56.2,45.3,55.0,51.5,45.0,99,85,66,30.14,29.99,5,0,7,0.00
2013-8-10,70.4,60.5,49.1,58.0,53.5,48.0,99,80,51,30.19,30.08,3,0,5,0.00
2013-8-11,71.8,61.4,51.5,60.0,56.6,51.0,99,85,65,30.09,30.02,1,0,4,0.00
2013-8-12,72.5,60.4,49.3,60.0,53.0,48.0,100,79,52,30.13,30.02,4,0,8,0.00
2013-8-13,69.9,56.6,43.5,56.0,48.0,43.0,99,77,44,30.23,30.13,5,0,8,0.01
2013-8-14,73.7,58.7,46.4,56.0,51.1,46.0,99,79,43,30.23,30.09,4,0,6,0.00
2013-8-15,75.3,60.6,48.8,60.0,52.8,48.0,99,79,44,30.12,30.07,5,0,5,0.00
2013-8-16,77.1,64.4,52.4,64.0,58.9,52.0,100,84,59,30.15,30.10,3,0,5,0.01
2013-8-17,74.5,67.4,58.3,65.0,60.9,56.0,95,80,68,30.13,30.01,6,2,13,0.00
2013-8-18,75.3,70.1,64.0,66.0,62.8,60.0,89,78,68,30.04,29.90,10,3,14,0.00
2013-8-19,81.9,73.1,64.3,73.0,68.0,63.0,96,84,71,29.89,29.81,3,1,5,0.00
2013-8-20,83.6,75.9,65.9,74.0,70.9,65.0,99,85,70,29.83,29.72,4,1,11,0.00
2013-8-21,80.7,71.4,57.6,73.0,63.1,55.0,99,78,46,30.05,29.72,5,1,9,0.44
2013-8-22,76.5,64.7,51.0,59.0,53.5,49.0,99,71,39,30.17,30.06,3,0,5,0.02
2013-8-23,77.6,64.8,50.0,62.0,55.8,50.0,100,76,49,30.17,30.01,8,2,10,0.00
2013-8-24,83.2,74.0,61.0,72.0,67.3,57.0,95,80,67,30.03,29.77,12,4,17,0.00
2013-8-25,89.6,79.5,71.6,77.0,74.0,69.0,98,84,55,29.89,29.76,4,1,11,0.08
2013-8-26,88.7,76.8,67.2,78.0,71.6,67.0,100,85,60,29.94,29.82,10,0,12,0.02
2013-8-27,84.3,73.4,65.3,75.0,70.1,65.0,100,90,67,29.92,29.80,3,0,5,0.15
2013-8-28,86.4,74.2,66.2,75.0,70.7,66.0,100,90,66,30.01,29.91,2,0,4,0.01
2013-8-29,71.9,68.2,64.9,72.0,67.6,65.0,100,98,94,30.01,29.81,3,0,8,0.71
2013-8-30,79.7,69.5,61.9,69.0,64.7,61.0,99,86,64,29.99,29.85,5,1,8,0.00
2013-8-31,80.8,68.1,61.3,72.0,64.8,60.0,99,89,71,29.88,29.67,6,2,13,0.53
2013-9-1,64.3,60.6,53.2,64.0,57.8,51.0,99,90,77,30.04,29.66,5,1,10,0.01
2013-9-2,63.9,54.5,47.8,54.0,49.8,47.0,98,85,59,30.14,30.04,3,0,6,0.00
2013-9-3,76.3,61.3,45.2,65.0,56.4,45.0,100,85,62,30.07,29.93,4,0,5,0.01
2013-9-4,71.8,61.4,50.9,61.0,53.2,44.0,97,77,39,30.20,29.98,4,0,7,0.00
2013-9-5,72.8,59.5,45.6,59.0,52.7,45.0,99,80,58,30.28,30.09,7,2,10,0.01
2013-9-6,80.9,71.4,57.4,72.0,66.7,55.0,97,86,70,30.09,29.84,6,1,9,0.00
2013-9-7,80.5,70.7,61.7,69.0,63.7,57.0,100,80,57,30.11,29.86,6,1,8,0.00
2013-9-8,63.8,58.8,54.5,58.0,55.4,53.0,96,89,68,30.12,29.91,7,1,10,0.03
2013-9-9,67.9,63.2,58.8,68.0,62.6,57.0,100,98,94,29.91,29.66,4,0,6,0.23
2013-9-10,72.5,65.0,57.6,67.0,62.5,57.0,99,92,73,29.92,29.71,2,0,7,0.01
2013-9-11,74.9,62.5,49.0,62.0,56.7,48.0,100,84,52,30.11,29.91,6,0,14,0.01
2013-9-12,65.0,54.1,45.2,54.0,48.3,44.0,100,83,51,30.28,30.12,4,0,10,0.01
2013-9-13,64.6,54.7,43.2,54.0,48.9,43.0,100,82,59,30.29,30.04,5,1,8,0.01
2013-9-14,67.9,58.9,53.2,59.0,53.9,49.0,97,84,70,30.04,29.87,7,1,8,0.04
2013-9-15,56.4,51.4,40.6,55.0,47.5,40.0,99,87,62,30.37,29.96,4,1,14,0.03
2013-9-16,61.4,49.0,35.3,50.0,43.6,35.0,100,83,58,30.45,30.25,6,1,10,0.01
2013-9-17,63.9,54.9,40.9,56.0,49.8,40.0,98,83,74,30.25,29.93,15,4,16,0.00
2013-9-18,65.2,60.2,55.9,65.0,59.6,55.0,99,97,88,29.93,29.70,6,2,12,0.01
2013-9-19,68.7,65.1,58.4,68.0,64.8,58.0,100,99,95,29.74,29.64,5,1,7,0.05
2013-9-20,58.2,52.8,48.4,57.0,50.0,44.0,97,90,69,29.92,29.73,4,0,9,0.05
2013-9-21,57.3,48.1,40.0,45.0,42.1,39.0,98,81,58,30.02,29.92,3,0,5,0.00
2013-9-22,63.0,51.3,40.4,50.0,45.0,39.0,96,80,60,30.02,29.87,8,3,14,0.00
2013-9-23,67.7,59.2,52.1,55.0,51.9,48.0,94,78,58,29.91,29.84,13,5,18,0.00
2013-9-24,70.6,58.0,49.0,60.0,53.2,48.0,97,85,64,29.97,29.91,5,1,8,0.00
2013-9-25,68.9,57.9,46.3,57.0,52.3,46.0,99,83,61,29.99,29.89,7,2,11,0.00
2013-9-26,72.4,61.5,51.5,60.0,55.6,50.0,96,82,65,29.94,29.80,13,4,17,0.00
2013-9-27,71.0,65.3,59.6,64.0,61.0,57.0,97,86,77,29.88,29.72,12,5,15,0.27
2013-9-28,71.1,57.7,44.5,64.0,54.3,43.0,98,89,76,29.84,29.48,9,3,16,0.41
2013-9-29,66.8,56.0,43.4,53.0,48.2,43.0,99,77,53,29.90,29.70,7,2,9,0.01
2013-9-30,68.5,62.1,56.6,59.0,53.4,49.0,89,73,65,29.69,29.54,8,2,11,0.00
2013-10-1,66.8,59.2,49.4,56.0,45.3,37.0,95,64,35,29.92,29.50,5,1,14,0.01
2013-10-2,65.3,51.4,40.9,51.0,44.8,39.0,98,80,43,30.06,29.92,3,0,6,0.03
2013-10-3,59.7,51.7,44.3,50.0,47.3,44.0,99,86,65,30.09,29.98,5,0,9,0.04
2013-10-4,56.6,51.6,47.7,50.0,47.5,43.0,98,86,74,30.17,30.08,7,1,14,0.01
2013-10-5,50.6,46.8,44.9,47.0,45.4,44.0,98,95,77,30.07,29.86,8,2,15,1.42
2013-10-6,52.0,44.5,39.1,47.0,43.4,39.0,99,96,80,29.85,29.78,4,1,8,0.09
2013-10-7,59.0,44.8,33.3,49.0,39.9,33.0,100,85,50,29.98,29.83,5,0,6,0.01
2013-10-8,71.4,57.1,40.2,52.0,47.0,39.0,98,72,48,29.96,29.69,13,4,18,0.00
2013-10-9,69.2,57.9,47.0,57.0,51.0,46.0,96,79,56,30.03,29.81,4,0,5,0.00
2013-10-10,70.3,58.9,48.0,56.0,51.4,47.0,97,78,60,30.03,29.87,8,2,14,0.00
2013-10-11,69.8,60.2,55.3,57.0,53.0,49.0,94,78,57,29.89,29.52,11,4,17,0.24
2013-10-12,57.1,49.7,43.7,55.0,47.4,42.0,97,92,84,30.13,29.54,10,3,16,0.08
2013-10-13,54.4,42.9,32.6,43.0,35.9,32.0,99,80,47,30.44,30.14,4,0,8,0.00
2013-10-14,49.6,42.3,33.5,43.0,39.8,33.0,99,91,67,30.47,30.19,4,0,10,0.50
2013-10-15,43.8,42.0,41.1,43.0,41.2,40.0,98,97,94,30.18,29.91,10,2,17,0.75
2013-10-16,52.2,41.2,29.7,42.0,37.2,29.0,99,87,62,29.98,29.86,4,0,7,0.00
2013-10-17,47.8,42.0,36.5,44.0,40.2,35.0,98,93,83,29.93,29.82,3,0,7,0.05
2013-10-18,47.0,36.2,28.1,39.0,31.7,28.0,99,85,53,29.97,29.82,3,0,12,0.00
2013-10-19,43.1,36.4,28.1,36.0,33.2,27.0,98,89,70,29.81,29.72,4,0,7,0.03
2013-10-20,36.5,32.1,27.2,36.0,31.5,27.0,98,97,92,29.90,29.76,2,0,7,0.18
2013-10-21,33.3,30.6,28.0,32.0,28.4,24.0,94,91,84,29.98,29.88,5,1,13,0.03
2013-10-22,38.0,33.5,30.1,31.0,28.4,24.0,96,82,60,30.09,29.98,3,0,11,0.00
2013-10-23,33.2,30.2,27.3,29.0,26.3,24.0,97,86,71,30.15,30.02,4,0,7,0.03
2013-10-24,38.7,32.9,27.5,32.0,28.8,26.0,94,85,68,30.32,30.15,5,0,7,0.01
2013-10-25,51.6,39.2,27.5,40.0,33.4,26.0,98,81,61,30.31,29.71,7,2,13,0.02
2013-10-26,41.8,37.3,33.7,37.0,31.8,28.0,95,80,66,30.10,29.81,4,1,13,0.03
2013-10-27,46.2,36.7,27.5,33.0,29.4,21.0,87,75,60,30.39,29.78,9,2,14,0.00
2013-10-28,34.9,27.2,21.5,21.0,18.2,15.0,88,70,44,30.61,30.39,5,1,9,0.00
2013-10-29,35.8,29.2,21.5,30.0,25.4,19.0,93,85,70,30.56,30.21,5,1,7,0.00
2013-10-30,40.4,36.6,32.3,40.0,35.0,30.0,99,94,89,30.21,29.70,4,1,6,0.06
2013-10-31,39.9,38.6,36.2,40.0,38.4,36.0,99,99,98,29.70,29.44,1,0,4,0.01
2013-11-1,39.7,36.5,33.8,37.0,33.7,28.0,99,90,77,29.91,29.44,3,0,9,0.00
2013-11-2,42.1,32.8,24.5,32.0,28.3,24.0,98,84,62,30.12,29.91,5,0,6,0.00
2013-11-3,46.6,40.2,27.2,36.0,33.0,26.0,96,76,64,30.15,29.89,12,5,16,0.00
2013-11-4,45.3,40.3,31.9,41.0,35.5,30.0,96,83,70,30.08,29.78,9,3,13,0.13
2013-11-5,33.6,30.8,27.6,31.0,25.4,23.0,94,81,71,30.25,30.08,4,0,9,0.00
2013-11-6,33.1,26.9,20.6,25.0,21.8,19.0,95,81,63,30.21,30.10,3,0,8,0.00
2013-11-7,34.3,23.8,16.4,25.0,18.6,15.0,96,82,56,30.27,30.21,3,0,6,0.01
2013-11-8,34.7,27.6,17.1,32.0,25.9,16.0,97,93,80,30.23,29.66,6,1,11,0.00
2013-11-9,32.9,32.2,31.8,32.0,31.5,31.0,98,97,94,30.22,29.66,5,1,11,0.06
2013-11-10,37.1,30.7,15.9,31.0,26.8,11.0,95,86,71,30.31,30.14,3,1,12,0.12
2013-11-11,20.4,15.5,11.9,11.0,8.8,6.0,84,75,56,30.80,30.30,5,1,11,0.01
2013-11-12,29.3,20.7,7.6,20.0,12.6,5.0,91,72,52,30.82,30.36,4,1,10,0.01
2013-11-13,46.4,33.6,24.5,35.0,27.8,19.0,93,80,63,30.35,29.83,8,2,9,0.02
2013-11-14,41.4,33.9,28.3,35.0,31.0,27.0,98,89,75,29.85,29.78,3,0,4,0.00
2013-11-15,44.0,38.0,30.2,38.0,34.6,29.0,98,88,76,29.83,29.59,11,2,17,0.00
2013-11-16,42.7,41.0,39.3,41.0,38.9,36.0,98,92,83,29.58,29.30,11,3,15,0.00
2013-11-17,40.1,34.5,26.2,40.0,33.6,23.0,99,96,88,29.78,29.28,6,1,11,0.12
2013-11-18,25.9,23.7,18.2,23.0,19.6,16.0,93,84,78,30.32,29.79,4,1,10,0.00
2013-11-19,40.4,29.9,21.2,32.0,23.6,19.0,91,78,63,30.32,29.83,11,4,21,0.00
2013-11-20,44.6,39.0,28.7,34.0,31.3,27.0,93,74,61,30.06,29.82,11,3,17,0.00
2013-11-21,33.9,22.8,14.1,31.0,18.6,11.0,93,84,74,30.62,30.06,7,1,12,0.00
2013-11-22,18.2,12.5,5.7,13.0,8.1,2.0,94,82,72,30.77,30.51,10,1,10,0.00
2013-11-23,10.9,5.4,-1.8,4.0,-0.0,-5.0,88,79,60,30.93,30.77,3,0,7,0.00
2013-11-24,36.6,20.0,-1.3,29.0,14.1,-4.0,93,78,68,30.77,29.80,14,4,20,0.00
2013-11-25,36.2,30.0,19.8,30.0,24.0,11.0,92,78,68,30.09,29.80,9,1,11,0.00
2013-11-26,19.7,13.2,8.5,15.0,6.7,2.0,85,75,64,30.50,30.08,4,1,15,0.00
2013-11-27,15.5,13.0,5.3,14.0,10.0,3.0,92,87,80,30.50,30.19,7,1,12,0.00
2013-11-28,18.9,14.2,2.2,16.0,11.9,-1.0,93,90,85,30.60,30.20,1,0,4,0.00
2013-11-29,23.9,14.1,-2.3,19.0,10.3,-5.0,92,85,78,30.61,30.18,7,2,12,0.00
2013-11-30,31.6,25.3,20.6,25.0,21.5,18.0,94,85,75,30.27,30.10,4,0,6,0.11
2013-12-1,24.7,21.7,15.7,22.0,19.3,14.0,94,90,83,30.26,30.03,1,0,3,0.00
2013-12-2,30.1,24.9,19.4,29.0,23.5,17.0,97,94,89,30.03,29.76,5,1,9,0.00
2013-12-3,31.0,28.2,18.9,30.0,26.6,17.0,97,93,89,30.00,29.77,6,1,11,0.00
2013-12-4,19.0,17.1,15.2,17.0,15.3,13.0,93,92,90,29.99,29.54,8,2,11,0.00
2013-12-5,14.9,4.8,-6.8,13.0,1.6,-10.0,92,86,81,30.33,29.60,7,1,15,0.00
2013-12-6,0.1,-8.4,-18.5,-5.0,-12.2,-23.0,86,83,79,30.73,30.33,6,0,7,0.00
2013-12-7,-6.3,-16.6,-26.7,-11.0,-23.0,-99.9,83,79,76,30.78,30.68,4,-21,6,0.00
2013-12-8,4.4,-8.4,-25.5,1.0,-12.9,-99.9,91,83,79,30.69,30.16,4,-10,7,0.00
2013-12-9,2.0,-5.9,-9.5,-1.0,-9.8,-13.0,89,83,77,30.16,29.99,5,0,8,0.00
2013-12-10,-0.4,-9.2,-20.5,-6.0,-13.2,-25.0,86,82,78,30.42,29.97,3,0,7,0.00
2013-12-11,-3.7,-11.6,-23.6,-8.0,-17.0,-99.9,85,80,76,30.63,30.39,2,-10,7,0.00
2013-12-12,6.4,0.2,-11.1,3.0,-3.6,-15.0,88,84,79,30.39,30.32,2,0,5,0.00
2013-12-13,0.2,-3.9,-6.5,-4.0,-9.6,-12.0,82,76,67,30.55,30.36,6,1,9,0.00
2013-12-14,6.0,-1.3,-9.5,2.0,-5.5,-13.0,86,82,75,30.52,30.21,2,0,6,0.00
2013-12-15,-5.4,-11.9,-23.8,-11.0,-17.6,-99.9,85,79,71,30.33,30.24,3,-10,5,0.00
2013-12-16,12.4,2.2,-5.9,10.0,-1.0,-11.0,91,86,78,30.26,29.90,6,1,11,0.00
2013-12-17,21.1,7.5,-9.8,20.0,4.8,-13.0,96,88,81,30.16,29.90,3,0,8,0.00
2013-12-18,21.3,8.3,-8.4,16.0,4.7,-11.0,94,85,75,30.12,29.73,6,1,8,0.00
2013-12-19,12.1,4.4,-1.5,9.0,0.3,-5.0,87,83,74,30.32,30.00,4,0,11,0.00
2013-12-20,10.9,-0.8,-13.5,8.0,-4.1,-17.0,89,86,82,30.28,30.00,1,0,3,0.00
2013-12-21,12.9,8.4,1.4,9.0,5.2,-1.0,91,87,81,30.21,30.00,6,0,9,0.00
2013-12-22,7.5,3.8,-4.4,5.0,0.3,-8.0,88,85,81,30.43,30.17,4,0,7,0.00
2013-12-23,-2.9,-10.6,-23.2,-8.0,-15.2,-28.0,83,80,73,30.65,30.43,2,0,6,0.00
2013-12-24,5.7,-6.2,-25.7,3.0,-12.4,-99.9,89,80,64,30.60,30.22,8,-8,14,0.00
2013-12-25,16.1,8.6,4.1,13.0,5.6,1.0,91,87,79,30.21,30.14,4,0,9,0.00
2013-12-26,11.5,1.3,-6.1,7.0,-2.0,-9.0,92,86,79,30.28,30.18,1,0,2,0.00
2013-12-27,37.0,25.4,9.7,32.0,22.9,8.0,95,90,78,30.24,29.87,6,1,10,0.20
2013-12-28,29.2,21.0,-0.3,28.0,18.9,-5.0,98,92,82,30.28,29.83,8,1,16,0.00
2013-12-29,-0.7,-13.6,-25.7,-5.0,-19.6,-30.0,83,75,58,30.48,30.29,3,0,9,0.00
2013-12-30,-1.8,-16.8,-27.1,-8.0,-22.3,-99.9,83,79,75,30.43,30.37,1,-10,3,0.00
2013-12-31,-9.1,-19.7,-29.3,-16.0,-28.7,-99.9,82,74,70,30.66,30.34,3,-42,7,0.00
2014-1-1,-8.0,-17.9,-26.7,-14.0,-24.9,-99.9,81,76,68,30.74,30.64,2,-21,3,0.00
2014-1-2,-5.4,-19.5,-32.6,-14.0,-28.0,-99.9,83,73,64,30.73,30.46,2,-31,3,0.00